Wilmington, NC

1:06 PM EDT on July 28, 2017 (GMT -0400)
Wilmington International

Weather History for KILM - February, 2012

Change the Weather History Date:

Wednesday, February 22, 2012

  Actual Average Record
Temperature  
Mean Temperature 60 °F 50 °F  
Max Temperature 71 °F 61 °F 78 °F (2003)
Min Temperature 49 °F 39 °F 21 °F (1896)
Degree Days  
Heating Degree Days 5 15  
Month to date heating degree days 342 367  
Since 1 July heating degree days 1504 1842  
Cooling Degree Days 0 0  
Month to date cooling degree days 0 0  
Year to date cooling degree days 0 2  
Growing Degree Days 10 (Base 50)    
Moisture  
Dew Point 48 °F    
Average Humidity 61    
Maximum Humidity 93    
Minimum Humidity 29    
Precipitation  
Precipitation 0.00 in 0.14 in 1.24 in (1878)
Month to date precipitation 1.73 2.83  
Year to date precipitation 3.50 6.59  
Snow  
Snow 0.00 in 0.10 in 2.00 in (1968)
Month to date snowfall 0.0 0.3  
Since 1 July snowfall T 1.5  
Snow Depth 0.00 in    
Sea Level Pressure  
Sea Level Pressure 29.89 in    
Wind  
Wind Speed 11 mph (SW)    
Max Wind Speed 21 mph    
Max Gust Speed 30 mph    
Visibility 10 miles    
Events      
T = Trace of Precipitation, MM = Missing Value Source: NWS Daily Summary

Daily Weather History Graph

Daily Weather History Graph

Search for Another Location

Airport or City:

Trip Planner

Search our weather history database for the weather conditions in past years. The results will help you decide how hot, cold, wet, or windy it might be!

Date:

Astronomy

Feb. 22, 2012 Rise Set
Actual Time 6:49 AM EST 6:01 PM EST
Civil Twilight 6:24 AM EST 6:26 PM EST
Nautical Twilight 5:54 AM EST 6:55 PM EST
Astronomical Twilight 5:25 AM EST 7:24 PM EST
Moon 6:51 AM EST (2/22) 7:00 PM EST (2/22)
Length of Visible Light 12h 02m
Length of Day
11h 11m
New Moon, 1% of the Moon is Illuminated
Feb 22
New Moon
Feb 29
First Quarter
Mar 8
Full
Mar 14
Last Quarter
Mar 22
New

Hourly Weather History & Observations

Time (EST) Temp. Dew Point Humidity Pressure Visibility Wind Dir Wind Speed Gust Speed Precip Events Conditions
12:53 AM 51.1 °F 48.9 °F 92% 30.05 in 10.0 mi WSW 4.6 mph - N/A   Clear
1:53 AM 52.0 °F 48.9 °F 89% 30.04 in 10.0 mi WSW 6.9 mph - N/A   Clear
2:53 AM 53.1 °F 48.9 °F 86% 30.02 in 10.0 mi SW 8.1 mph - N/A   Clear
3:53 AM 51.1 °F 48.0 °F 89% 30.00 in 10.0 mi WSW 6.9 mph - N/A   Clear
4:53 AM 51.1 °F 48.0 °F 89% 30.00 in 10.0 mi WSW 8.1 mph - N/A   Clear
5:53 AM 48.9 °F 46.9 °F 93% 30.00 in 10.0 mi WSW 5.8 mph - N/A   Clear
6:53 AM 50.0 °F 46.9 °F 89% 30.01 in 10.0 mi SW 5.8 mph - N/A   Clear
7:53 AM 51.1 °F 48.0 °F 89% 30.01 in 10.0 mi SW 6.9 mph - N/A   Clear
8:53 AM 57.0 °F 50.0 °F 77% 30.01 in 10.0 mi WSW 10.4 mph - N/A   Clear
9:53 AM 61.0 °F 51.1 °F 70% 29.99 in 10.0 mi WSW 9.2 mph - N/A   Clear
10:53 AM 66.0 °F 52.0 °F 60% 29.98 in 10.0 mi WSW 10.4 mph 18.4 mph N/A   Clear
11:53 AM 69.1 °F 44.1 °F 40% 29.94 in 10.0 mi WSW 13.8 mph - N/A   Clear
12:53 PM 70.0 °F 42.1 °F 36% 29.89 in 10.0 mi WSW 12.7 mph - N/A   Clear
1:53 PM 71.1 °F 37.9 °F 30% 29.86 in 10.0 mi SSW 17.3 mph 23.0 mph N/A   Clear
2:53 PM 70.0 °F 37.9 °F 31% 29.83 in 10.0 mi SW 15.0 mph 20.7 mph N/A   Clear
3:53 PM 69.1 °F 44.1 °F 40% 29.80 in 10.0 mi South 18.4 mph 24.2 mph N/A   Clear
4:53 PM 64.9 °F 42.1 °F 43% 29.79 in 10.0 mi SSW 13.8 mph 23.0 mph N/A   Clear
5:53 PM 62.1 °F 50.0 °F 65% 29.77 in 10.0 mi SSW 13.8 mph 21.9 mph N/A   Clear
6:53 PM 61.0 °F 53.1 °F 75% 29.78 in 10.0 mi SSW 10.4 mph - N/A   Clear
7:53 PM 61.0 °F 54.0 °F 78% 29.76 in 10.0 mi SW 11.5 mph - N/A   Clear
8:53 PM 61.0 °F 52.0 °F 72% 29.72 in 10.0 mi SSW 15.0 mph - N/A   Clear
9:53 PM 61.0 °F 53.1 °F 75% 29.72 in 10.0 mi SW 18.4 mph 24.2 mph N/A   Clear
10:53 PM 62.1 °F 55.0 °F 78% 29.70 in 10.0 mi SSW 12.7 mph 25.3 mph N/A   Partly Cloudy
11:53 PM 63.0 °F 57.0 °F 81% 29.69 in 10.0 mi SW 17.3 mph 25.3 mph N/A   Scattered Clouds